| time (UTC) | temp F | wind direction | speed MPH | gust MPH | rain 1hr in | rain 24hr in | rain mn in | humidity % | barometer mb |
| 20260904111522 | 80 | 257 | 2.0 | 10.0 | 0.00 | 0.13 | 0.00 | 1014.5 | |
| 20260904110518 | 79 | 225 | 1.0 | 4.0 | 0.00 | 0.13 | 0.00 | 1014.6 | |
| 20260904105614 | 78 | 258 | 2.0 | 9.0 | 0.00 | 0.13 | 0.00 | 1014.6 | |
| 20260904104611 | 78 | 232 | 5.0 | 11.0 | 0.00 | 0.13 | 0.00 | 1014.7 | |
| 20260904103606 | 78 | 198 | 4.0 | 9.0 | 0.00 | 0.13 | 0.00 | 1014.9 | |
| 20260904102603 | 77 | 158 | 2.0 | 9.0 | 0.00 | 0.13 | 0.00 | 1015.1 | |
| 20260904101559 | 77 | 246 | 3.0 | 8.0 | 0.00 | 0.13 | 0.00 | 1015.0 | |
| 20260904100555 | 78 | 180 | 3.0 | 5.0 | 0.00 | 0.13 | 0.00 | 1015.2 | |
| 20260904095551 | 77 | 173 | 5.0 | 11.0 | 0.00 | 0.13 | 0.00 | 1015.3 | |
| 20260904094547 | 76 | 206 | 4.0 | 12.0 | 0.00 | 0.13 | 0.00 | 1015.5 | |
| 20260904093543 | 75 | 199 | 2.0 | 8.0 | 0.00 | 0.13 | 0.00 | 1015.8 | |
| 20260904092540 | 75 | 212 | 1.0 | 5.0 | 0.00 | 0.13 | 0.00 | 1015.9 | |
| 20260904091537 | 75 | 216 | 1.0 | 4.0 | 0.00 | 0.13 | 0.00 | 1016.1 | |
| 20260904090532 | 74 | 225 | 2.0 | 4.0 | 0.00 | 0.13 | 0.00 | 1016.3 | |
| 20260904085529 | 74 | 113 | 0.0 | 4.0 | 0.00 | 0.13 | 0.00 | 1016.4 | |
| 20260904084525 | 73 | 194 | 1.0 | 6.0 | 0.00 | 0.13 | 0.00 | 1016.5 | |
| 20260904083522 | 72 | 215 | 1.0 | 5.0 | 0.00 | 0.13 | 0.00 | 1016.4 | |
| 20260904082517 | 71 | 189 | 1.0 | 4.0 | 0.00 | 0.13 | 0.00 | 1016.6 | |
| 20260904081614 | 70 | 198 | 1.0 | 4.0 | 0.00 | 0.13 | 0.00 | 1016.7 | |
| 20260904080609 | 70 | 0.0 | 2.0 | 0.00 | 0.13 | 0.00 | 1016.8 | ||
| 20260904075605 | 70 | 169 | 0.0 | 3.0 | 0.00 | 0.13 | 0.00 | 1017.1 | |
| 20260904074602 | 69 | 298 | 1.0 | 4.0 | 0.00 | 0.13 | 0.00 | 1017.2 | |
| 20260904073558 | 68 | 201 | 0.0 | 3.0 | 0.00 | 0.13 | 0.00 | 1017.2 | |
| 20260904072554 | 67 | 0.0 | 1.0 | 0.00 | 0.13 | 0.00 | 1017.3 | ||
| 20260904071550 | 66 | 0.0 | 3.0 | 0.00 | 0.13 | 0.00 | 1017.5 | ||
| 20260904070547 | 65 | 180 | 1.0 | 2.0 | 0.00 | 0.13 | 0.00 | 1017.4 | |
| 20260904065543 | 65 | 180 | 1.0 | 4.0 | 0.00 | 0.13 | 0.00 | 1017.4 | |
| 20260904064539 | 64 | 180 | 1.0 | 4.0 | 0.00 | 0.13 | 0.00 | 1017.5 | |
| 20260904063535 | 64 | 180 | 0.0 | 4.0 | 0.00 | 0.13 | 0.00 | 1017.5 | |
| 20260904062530 | 64 | 170 | 1.0 | 4.0 | 0.00 | 0.13 | 0.00 | 1017.6 | |
| 20260904061527 | 63 | 206 | 1.0 | 3.0 | 0.00 | 0.13 | 0.00 | 1017.5 | |
| 20260904060523 | 62 | 0.0 | 2.0 | 0.00 | 0.13 | 0.00 | 1017.5 | ||
| 20260904055520 | 61 | 0.0 | 2.0 | 0.00 | 0.13 | 0.00 | 1017.4 | ||
| 20260904054516 | 61 | 180 | 0.0 | 3.0 | 0.00 | 0.13 | 0.00 | 1017.4 | |
| 20260904053612 | 61 | 225 | 0.0 | 2.0 | 0.00 | 0.13 | 0.00 | 1017.6 | |
| 20260904052608 | 61 | 225 | 0.0 | 2.0 | 0.00 | 0.13 | 0.00 | 1017.4 | |
| 20260904051605 | 60 | 0.0 | 0.0 | 0.00 | 0.13 | 0.00 | 1017.6 | ||
| 20260904050601 | 60 | 0.0 | 0.0 | 0.00 | 0.13 | 0.00 | 1017.7 | ||
| 20260904045556 | 59 | 0.0 | 0.0 | 0.00 | 0.13 | 0.00 | 1017.6 | ||
| 20260904044553 | 59 | 0.0 | 2.0 | 0.00 | 0.13 | 0.00 | 1017.7 | ||
| 20260904043549 | 59 | 203 | 0.0 | 2.0 | 0.00 | 0.13 | 0.00 | 1017.6 | |
| 20260904042545 | 60 | 180 | 0.0 | 2.0 | 0.00 | 0.13 | 0.00 | 1017.7 | |
| 20260904041542 | 60 | 180 | 0.0 | 3.0 | 0.00 | 0.13 | 0.00 | 1017.7 | |
| 20260904040537 | 60 | 0.0 | 0.0 | 0.00 | 0.13 | 0.00 | 1017.8 | ||
| 20260904035534 | 59 | 180 | 0.0 | 3.0 | 0.00 | 0.13 | 0.00 | 1018.0 | |
| 20260904034601 | 60 | 180 | 0.0 | 2.0 | 0.00 | 0.13 | 0.00 | 1017.9 | |
| 20260904033556 | 60 | 0.0 | 2.0 | 0.00 | 0.13 | 0.00 | 1017.9 | ||
| 20260904032553 | 60 | 0.0 | 1.0 | 0.00 | 0.13 | 0.00 | 1017.9 | ||
| 20260904031549 | 61 | 0.0 | 0.0 | 0.00 | 0.13 | 0.00 | 1017.9 | ||
| 20260904030545 | 61 | 0.0 | 0.0 | 0.00 | 0.13 | 0.00 | 1017.8 | ||
| 20260904025541 | 61 | 0.0 | 2.0 | 0.00 | 0.13 | 0.00 | 1017.8 | ||
| 20260904024538 | 61 | 0.0 | 2.0 | 0.00 | 0.13 | 0.00 | 1018.1 | ||
| 20260904023533 | 61 | 180 | 0.0 | 2.0 | 0.00 | 0.13 | 0.00 | 1018.1 | |
| 20260904022530 | 61 | 180 | 0.0 | 3.0 | 0.00 | 0.13 | 0.00 | 1018.4 | |
| 20260904021526 | 61 | 0.0 | 0.0 | 0.00 | 0.13 | 0.00 | 1018.4 | ||
| 20260904020522 | 61 | 0.0 | 0.0 | 0.00 | 0.13 | 0.00 | 1018.4 | ||
| 20260904015519 | 61 | 0.0 | 1.0 | 0.00 | 0.13 | 0.00 | 1018.3 | ||
| 20260904014615 | 61 | 0.0 | 2.0 | 0.00 | 0.13 | 0.00 | 1018.3 | ||
| 20260904013611 | 61 | 236 | 1.0 | 4.0 | 0.00 | 0.13 | 0.00 | 1018.5 | |
| 20260904012607 | 62 | 180 | 0.0 | 2.0 | 0.00 | 0.13 | 0.00 | 1018.5 | |
| 20260904011604 | 62 | 0.0 | 0.0 | 0.00 | 0.13 | 0.00 | 1018.6 | ||
| 20260904010600 | 62 | 0.0 | 0.0 | 0.00 | 0.13 | 0.00 | 1018.6 | ||
| 20260904005556 | 62 | 240 | 1.0 | 3.0 | 0.00 | 0.13 | 0.00 | 1018.5 | |
| 20260904004552 | 62 | 203 | 1.0 | 3.0 | 0.00 | 0.13 | 0.00 | 1018.6 | |
| 20260904003548 | 61 | 195 | 0.0 | 3.0 | 0.00 | 0.13 | 0.00 | 1018.6 | |
| 20260904002544 | 61 | 236 | 0.0 | 3.0 | 0.00 | 0.13 | 0.00 | 1018.7 | |
| 20260904001540 | 60 | 212 | 0.0 | 3.0 | 0.00 | 0.13 | 0.00 | 1018.9 | |
| 20260904000536 | 60 | 0.0 | 0.0 | 0.00 | 0.13 | 0.00 | 1019.1 | ||
| 20260903235533 | 61 | 0.0 | 0.0 | 0.00 | 0.13 | 0.00 | 1019.1 | ||
| 20260903234529 | 61 | 0.0 | 0.0 | 0.00 | 0.13 | 0.00 | 1019.2 | ||
| 20260903233525 | 61 | 0.0 | 1.0 | 0.00 | 0.13 | 0.00 | 1019.4 | ||
| 20260903232522 | 61 | 0.0 | 0.0 | 0.00 | 0.13 | 0.00 | 1019.5 | ||
| 20260903231517 | 61 | 0.0 | 0.0 | 0.00 | 0.13 | 0.00 | 1019.5 | ||
| 20260903230614 | 62 | 0.0 | 0.0 | 0.00 | 0.13 | 0.00 | 1019.6 | ||
| 20260903225610 | 61 | 0.0 | 1.0 | 0.00 | 0.13 | 0.00 | 1019.6 | ||
| 20260903224606 | 61 | 0.0 | 0.0 | 0.00 | 0.13 | 0.00 | 1019.7 | ||
| 20260903223603 | 62 | 0.0 | 0.0 | 0.00 | 0.13 | 0.00 | 1019.8 | ||
| 20260903222558 | 62 | 0.0 | 0.0 | 0.00 | 0.13 | 0.00 | 1019.7 | ||
| 20260903221555 | 62 | 0.0 | 1.0 | 0.00 | 0.13 | 0.00 | 1019.7 | ||
| 20260903220551 | 62 | 0.0 | 0.0 | 0.00 | 0.13 | 0.00 | 1019.7 | ||
| 20260903215547 | 62 | 0.0 | 0.0 | 0.00 | 0.13 | 0.13 | 1019.6 | ||
| 20260903214543 | 62 | 0.0 | 0.0 | 0.00 | 0.13 | 0.13 | 1019.7 | ||
| 20260903213540 | 62 | 0.0 | 0.0 | 0.00 | 0.13 | 0.13 | 1019.6 | ||
| 20260903212536 | 62 | 0.0 | 0.0 | 0.00 | 0.13 | 0.13 | 1019.7 | ||
| 20260903211532 | 62 | 0.0 | 0.0 | 0.00 | 0.13 | 0.13 | 1019.8 | ||
| 20260903210529 | 62 | 0.0 | 0.0 | 0.00 | 0.13 | 0.13 | 1019.7 | ||
| 20260903205524 | 62 | 0.0 | 0.0 | 0.00 | 0.13 | 0.13 | 1019.7 | ||
| 20260903204521 | 62 | 0.0 | 0.0 | 0.00 | 0.13 | 0.13 | 1019.7 | ||
| 20260903203517 | 62 | 0.0 | 0.0 | 0.00 | 0.13 | 0.13 | 1020.0 | ||
| 20260903202614 | 62 | 0.0 | 0.0 | 0.00 | 0.13 | 0.13 | 1020.0 | ||
| 20260903201609 | 63 | 0.0 | 0.0 | 0.00 | 0.13 | 0.13 | 1019.9 | ||
| 20260903200606 | 63 | 0.0 | 0.0 | 0.00 | 0.13 | 0.13 | 1019.9 | ||
| 20260903195602 | 63 | 0.0 | 0.0 | 0.00 | 0.13 | 0.13 | 1019.8 | ||
| 20260903194558 | 63 | 0.0 | 0.0 | 0.00 | 0.13 | 0.13 | 1019.7 | ||
| 20260903193554 | 63 | 0.0 | 0.0 | 0.00 | 0.13 | 0.13 | 1019.5 | ||
| 20260903192551 | 63 | 0.0 | 0.0 | 0.00 | 0.13 | 0.13 | 1019.4 | ||
| 20260903191547 | 63 | 0.0 | 0.0 | 0.00 | 0.13 | 0.13 | 1019.6 | ||
| 20260903190543 | 63 | 0.0 | 0.0 | 0.00 | 0.13 | 0.13 | 1019.6 | ||
| 20260903185540 | 63 | 0.0 | 2.0 | 0.00 | 0.13 | 0.13 | 1019.7 | ||
| 20260903184535 | 63 | 0.0 | 0.0 | 0.00 | 0.13 | 0.13 | 1019.7 | ||
| 20260903183531 | 64 | 0.0 | 0.0 | 0.00 | 0.13 | 0.13 | 1019.6 | ||
| 20260903182528 | 64 | 0.0 | 0.0 | 0.00 | 0.13 | 0.13 | 1019.4 | ||
| 20260903181524 | 64 | 0.0 | 0.0 | 0.00 | 0.13 | 0.13 | 1019.6 | ||
| 20260903180520 | 64 | 0.0 | 0.0 | 0.00 | 0.13 | 0.13 | 1019.3 | ||
| 20260903175516 | 64 | 0.0 | 0.0 | 0.00 | 0.13 | 0.13 | 1019.2 | ||
| 20260903174612 | 65 | 0.0 | 1.0 | 0.00 | 0.13 | 0.13 | 1019.2 | ||
| 20260903173608 | 65 | 0.0 | 0.0 | 0.00 | 0.13 | 0.13 | 1019.3 | ||
| 20260903172605 | 66 | 0.0 | 1.0 | 0.00 | 0.13 | 0.13 | 1019.1 | ||
| 20260903171601 | 66 | 0.0 | 1.0 | 0.00 | 0.13 | 0.13 | 1019.2 | ||
| 20260903170558 | 66 | 0.0 | 1.0 | 0.00 | 0.13 | 0.13 | 1019.2 | ||
| 20260903165553 | 66 | 0.0 | 0.0 | 0.00 | 0.13 | 0.13 | 1019.2 | ||
| 20260903164550 | 66 | 0.0 | 1.0 | 0.00 | 0.13 | 0.13 | 1019.2 | ||
| 20260903163546 | 65 | 0.0 | 0.0 | 0.00 | 0.13 | 0.13 | 1019.3 | ||
| 20260903162542 | 65 | 0.0 | 0.0 | 0.00 | 0.13 | 0.13 | 1019.5 | ||
| 20260903161538 | 65 | 0.0 | 1.0 | 0.00 | 0.13 | 0.13 | 1019.5 | ||
| 20260903160535 | 65 | 0.0 | 1.0 | 0.00 | 0.13 | 0.13 | 1019.5 | ||
| 20260903155631 | 65 | 0.0 | 2.0 | 0.00 | 0.13 | 0.13 | 1019.5 | ||
| 20260903154557 | 65 | 45 | 0.0 | 2.0 | 0.00 | 0.13 | 0.13 | 1019.6 | |
| 20260903153553 | 65 | 0.0 | 1.0 | 0.00 | 0.13 | 0.13 | 1019.7 | ||
| 20260903152549 | 66 | 0.0 | 3.0 | 0.00 | 0.13 | 0.13 | 1019.7 | ||
| 20260903151546 | 66 | 0.0 | 1.0 | 0.00 | 0.13 | 0.13 | 1019.8 | ||
| 20260903150542 | 65 | 0.0 | 0.0 | 0.00 | 0.13 | 0.13 | 1019.7 | ||
| 20260903145538 | 65 | 0.0 | 0.0 | 0.00 | 0.13 | 0.13 | 1019.6 | ||
| 20260903144534 | 65 | 0.0 | 0.0 | 0.00 | 0.13 | 0.13 | 1019.6 | ||
| 20260903143530 | 64 | 180 | 0.0 | 2.0 | 0.01 | 0.13 | 0.13 | 1019.7 | |
| 20260903142526 | 64 | 0.0 | 0.0 | 0.02 | 0.13 | 0.13 | 1019.6 | ||
| 20260903141522 | 64 | 0.0 | 1.0 | 0.04 | 0.13 | 0.13 | 1019.7 | ||
| 20260903140519 | 64 | 0.0 | 0.0 | 0.06 | 0.13 | 0.13 | 1019.8 | ||
| 20260903135615 | 64 | 0.0 | 2.0 | 0.07 | 0.13 | 0.13 | 1020.0 | ||
| 20260903134612 | 63 | 0.0 | 1.0 | 0.09 | 0.13 | 0.13 | 1020.3 | ||
| 20260903133608 | 63 | 0.0 | 1.0 | 0.09 | 0.12 | 0.12 | 1020.5 | ||
| 20260903132604 | 64 | 0.0 | 0.0 | 0.09 | 0.11 | 0.11 | 1020.7 | ||
| 20260903131600 | 64 | 0.0 | 1.0 | 0.08 | 0.09 | 0.09 | 1020.8 | ||
| 20260903130557 | 65 | 225 | 1.0 | 3.0 | 0.06 | 0.07 | 0.07 | 1020.6 | |
| 20260903125552 | 66 | 45 | 1.0 | 4.0 | 0.05 | 0.06 | 0.06 | 1020.5 | |
| 20260903124549 | 68 | 240 | 0.0 | 4.0 | 0.04 | 0.04 | 0.04 | 1020.6 | |
| 20260903123545 | 68 | 315 | 0.0 | 3.0 | 0.02 | 0.02 | 0.02 | 1020.4 | |
| 20260903122541 | 69 | 0.0 | 1.0 | 0.01 | 0.01 | 0.01 | 1020.4 | ||
| 20260903121537 | 70 | 0.0 | 2.0 | 0.01 | 0.01 | 0.01 | 1020.2 | ||
| 20260903120534 | 69 | 0.0 | 0.0 | 0.01 | 0.01 | 0.01 | 1020.2 | ||
| 20260903115530 | 69 | 0.0 | 3.0 | 0.01 | 0.01 | 0.01 | 1020.2 | ||
| 20260903114527 | 71 | 136 | 1.0 | 4.0 | 0.00 | 0.00 | 0.00 | 1020.2 | |
| 20260903113523 | 73 | 222 | 3.0 | 8.0 | 0.00 | 0.00 | 0.00 | 1020.1 | |
| 20260903112518 | 73 | 263 | 2.0 | 9.0 | 0.00 | 0.00 | 0.00 | 1020.5 |